Estación de Casa Rosada

Ultimos registro cada 15 minutos 70
Estación Fecha / Hora Temperatura Humedad Lluvia Velocidad Dirección Radiación Presion
70 Casa Rosada 09-05-2026 17:15 23,5 19 0 1,8 353 18 1008
69 Casa Rosada 09-05-2026 17:00 24,7 18 0 2,2 17 58 1008
68 Casa Rosada 09-05-2026 16:45 25,4 15 0 1,8 337 179 1008
67 Casa Rosada 09-05-2026 16:30 25,9 15 0 3,1 37 239 1008
66 Casa Rosada 09-05-2026 16:15 26,2 16 0 2,2 331 283 1007,9
65 Casa Rosada 09-05-2026 16:00 26,6 16 0 2,2 25 327 1008,1
64 Casa Rosada 09-05-2026 15:45 26,8 15 0 1,8 341 371 1008
63 Casa Rosada 09-05-2026 15:30 26,8 15 0 2,7 357 408 1007,9
62 Casa Rosada 09-05-2026 15:15 27 15 0 2,2 24 446 1008,1
61 Casa Rosada 09-05-2026 15:00 27,1 15 0 3,1 360 478 1008,2
60 Casa Rosada 09-05-2026 14:45 27,1 17 0 4,5 20 512 1008,3
59 Casa Rosada 09-05-2026 14:30 26,7 17 0 2,2 15 538 1008,3
58 Casa Rosada 09-05-2026 14:15 26,9 17 0 2,2 32 566 1008,5
57 Casa Rosada 09-05-2026 14:00 26,4 20 0 2,7 304 587 1008,8
56 Casa Rosada 09-05-2026 13:45 26,3 20 0 0,9 200 605 1008,9
55 Casa Rosada 09-05-2026 13:30 26,2 20 0 1,8 8 619 1009
54 Casa Rosada 09-05-2026 13:15 25,4 22 0 3,1 315 633 1009
53 Casa Rosada 09-05-2026 13:00 24,7 26 0 1,3 12 642 1009,4
52 Casa Rosada 09-05-2026 12:45 24,3 24 0 3,6 20 649 1009,8
51 Casa Rosada 09-05-2026 12:30 24 25 0 1,3 341 647 1010,1
50 Casa Rosada 09-05-2026 12:15 23,4 25 0 1,8 347 643 1010,2
49 Casa Rosada 09-05-2026 12:00 22,8 27 0 1,3 312 636 1010,3
48 Casa Rosada 09-05-2026 11:45 22,4 26 0 2,2 310 626 1010,5
47 Casa Rosada 09-05-2026 11:30 22 28 0 0,4 297 612 1010,8
46 Casa Rosada 09-05-2026 11:15 22,1 26 0 1,3 335 592 1011,1
45 Casa Rosada 09-05-2026 11:00 21,7 25 0 1,8 347 570 1011,5
44 Casa Rosada 09-05-2026 10:45 22,1 25 0 1,3 354 547 1011,9
43 Casa Rosada 09-05-2026 10:30 21,4 19 0 0,9 28 520 1012,5
42 Casa Rosada 09-05-2026 10:15 20,3 20 0 0,4 77 487 1013,1
41 Casa Rosada 09-05-2026 10:00 18,1 26 0 0,9 73 454 1013,6
40 Casa Rosada 09-05-2026 09:45 16,4 30 0 0,4 37 415 1014,2
39 Casa Rosada 09-05-2026 09:30 14,8 34 0 0,9 138 373 1014,7
38 Casa Rosada 09-05-2026 09:15 12,3 44 0 0,4 167 334 1014,8
37 Casa Rosada 09-05-2026 09:00 8,6 55 0 0,9 177 288 1014,3
36 Casa Rosada 09-05-2026 08:45 6,4 59 0 0,4 187 23 1014,3
35 Casa Rosada 09-05-2026 08:30 6,3 60 0 0,9 154 21 1014,1
34 Casa Rosada 09-05-2026 08:15 6,3 60 0 0,9 191 19 1013,9
33 Casa Rosada 09-05-2026 08:00 5,9 62 0 0,4 167 16 1013,9
32 Casa Rosada 09-05-2026 07:45 6,1 61 0 0,9 167 14 1013,7
31 Casa Rosada 09-05-2026 07:30 6,2 61 0 0,4 177 11 1013,6
30 Casa Rosada 09-05-2026 07:15 6,1 62 0 0,9 161 5 1013,4
29 Casa Rosada 09-05-2026 07:00 6,3 61 0 1,3 190 0 1013,5
28 Casa Rosada 09-05-2026 06:45 6,7 60 0 0,9 185 0 1013,2
27 Casa Rosada 09-05-2026 06:30 6,3 62 0 0,4 160 0 1013,1
26 Casa Rosada 09-05-2026 06:15 6,3 62 0 0,9 167 0 1013,1
25 Casa Rosada 09-05-2026 06:00 6,6 61 0 0,9 181 0 1012,9
24 Casa Rosada 09-05-2026 05:45 6,9 61 0 0,4 167 0 1012,7
23 Casa Rosada 09-05-2026 05:30 7,4 59 0 0,9 167 0 1012,6
22 Casa Rosada 09-05-2026 05:15 7,3 61 0 0,4 150 0 1012,6
21 Casa Rosada 09-05-2026 05:00 7,2 61 0 0,4 167 0 1012,6
20 Casa Rosada 09-05-2026 04:45 7,1 62 0 0,9 172 0 1012,7
19 Casa Rosada 09-05-2026 04:30 7,2 62 0 0,9 167 0 1012,7
18 Casa Rosada 09-05-2026 04:15 7,8 60 0 0,4 186 0 1012,8
17 Casa Rosada 09-05-2026 04:00 8 60 0 0,4 158 0 1012,9
16 Casa Rosada 09-05-2026 03:45 7,7 61 0 0,9 162 0 1012,8
15 Casa Rosada 09-05-2026 03:30 7,7 61 0 1,3 167 0 1012,7
14 Casa Rosada 09-05-2026 03:15 7,7 61 0 0,9 167 0 1012,6
13 Casa Rosada 09-05-2026 03:00 8,1 60 0 1,3 181 0 1012,5
12 Casa Rosada 09-05-2026 02:45 7,7 62 0 1,3 208 0 1012,7
11 Casa Rosada 09-05-2026 02:30 7,7 62 0 0,9 177 0 1012,7
10 Casa Rosada 09-05-2026 02:15 7,7 62 0 0,9 154 0 1012,8
9 Casa Rosada 09-05-2026 02:00 8,1 61 0 0,9 167 0 1012,8
8 Casa Rosada 09-05-2026 01:45 8,2 60 0 0 167 0 1012,9
7 Casa Rosada 09-05-2026 01:30 8,4 60 0 0,4 167 0 1012,9
6 Casa Rosada 09-05-2026 01:15 8,5 61 0 0,4 177 0 1012,8
5 Casa Rosada 09-05-2026 01:00 8,3 61 0 0,4 160 0 1012,8
4 Casa Rosada 09-05-2026 00:45 8,4 61 0 0,9 167 0 1012,6
3 Casa Rosada 09-05-2026 00:30 8,2 62 0 0,4 167 0 1012,6
2 Casa Rosada 09-05-2026 00:15 8,2 63 0 0,4 177 0 1012,5
1 Casa Rosada 09-05-2026 00:00 8,8 61 0 0 181 0 1012,3